contact:dominique.lefevre@mio.osupytheas.fr, maurice.libes@osupytheas.fr, didier.mallarino@osupytheas.fr
Project:EMSO http://www.emso-fr.org/EMSO-France
Depth: 2436.0 m
Title:EMSO Ligure Ouest : Data MII capteur AQUADOPP
Date,Latitude,Longitude,X_East,Y_North,Z_Up,Amplitude_X,Amplitude_Y,Amplitude_Z,Batterie,SoundSpeed,Heading,Pitch,Roll,Pressure,TIS,Speed,Direction
, degrees North, degrees East, m.s-1, m.s-1,m.s-1, 1, 1, 1, Volt, m.s-1, degree, degree, degree, dbar, degree_C, m.s-1, degree
2022-10-25T00:04:03,42.805,6.029,-0.054,0.007,-0.047,103.0,101.0,100.0,13.4,1505.2,332.2,-0.8,1.8,2471.032,13.28,0.054,277.4
2022-10-25T00:07:03,42.805,6.029,-0.044,0.006,-0.032,101.0,100.0,100.0,13.4,1505.2,327.0,-0.7,1.8,2471.04,13.28,0.044,277.8
2022-10-25T00:10:03,42.805,6.029,-0.019,-0.003,-0.037,101.0,101.0,100.0,13.4,1505.2,333.1,-0.8,1.8,2471.043,13.28,0.019,261.0
2022-10-25T00:13:03,42.805,6.029,-0.032,0.011,-0.016,101.0,101.0,100.0,13.3,1505.2,322.4,-0.7,1.8,2471.053,13.28,0.033,289.0
2022-10-25T00:16:03,42.805,6.029,-0.016,0.001,-0.038,101.0,100.0,101.0,13.4,1505.2,318.6,-0.7,1.8,2471.032,13.28,0.016,273.6
2022-10-25T00:19:03,42.805,6.029,-0.046,0.008,-0.009,101.0,101.0,100.0,13.4,1505.2,329.1,-0.7,1.8,2470.999,13.28,0.046,279.9
2022-10-25T00:22:03,42.805,6.029,-0.033,-0.009,-0.049,100.0,101.0,100.0,13.3,1505.2,317.8,-0.7,1.8,2471.005,13.29,0.034,254.7
2022-10-25T00:25:03,42.805,6.029,-0.045,-0.021,-0.045,102.0,100.0,99.0,13.4,1505.2,318.4,-0.8,1.8,2471.003,13.29,0.049,245.0
2022-10-25T00:28:03,42.805,6.029,-0.046,-0.003,-0.033,101.0,101.0,100.0,13.4,1505.2,328.1,-0.8,1.8,2470.994,13.29,0.046,266.3
2022-10-25T00:31:03,42.805,6.029,-0.041,0.01,-0.067,100.0,101.0,100.0,13.4,1505.2,322.2,-0.7,1.8,2470.994,13.29,0.042,283.7
2022-10-25T00:34:03,42.805,6.029,-0.031,0.0,-0.059,101.0,101.0,100.0,13.4,1505.2,329.7,-0.7,1.8,2471.001,13.29,0.03,270.0
2022-10-25T00:37:03,42.805,6.029,0.003,0.008,-0.007,101.0,103.0,100.0,13.4,1505.2,324.2,-0.8,1.8,2471.011,13.29,0.008,20.6
2022-10-25T00:40:03,42.805,6.029,-0.025,0.021,-0.036,101.0,99.0,100.0,13.4,1505.2,329.6,-0.8,1.8,2471.014,13.29,0.032,310.0
2022-10-25T00:43:03,42.805,6.029,-0.024,0.0,-0.024,100.0,102.0,99.0,13.3,1505.2,321.5,-0.8,1.8,2471.023,13.29,0.024,270.0
2022-10-25T00:46:03,42.805,6.029,-0.041,0.014,-0.004,100.0,100.0,100.0,13.4,1505.2,328.6,-0.8,1.8,2471.014,13.29,0.043,288.9
2022-10-25T00:49:03,42.805,6.029,-0.021,0.0,-0.037,101.0,100.0,100.0,13.3,1505.2,329.5,-0.7,1.8,2470.996,13.29,0.021,270.0
2022-10-25T00:52:03,42.805,6.029,-0.04,0.006,-0.02,102.0,102.0,99.0,13.4,1505.2,325.5,-0.8,1.8,2471.011,13.29,0.04,278.5
2022-10-25T00:55:03,42.805,6.029,-0.02,0.005,-0.046,100.0,100.0,101.0,13.3,1505.2,327.3,-0.8,1.8,2471.004,13.29,0.02,284.0
2022-10-25T00:58:03,42.805,6.029,-0.059,0.0,-0.031,101.0,100.0,100.0,13.3,1505.2,318.6,-0.8,1.8,2471.016,13.29,0.058,270.0
2022-10-25T01:04:03,42.805,6.029,-0.044,0.027,-0.005,104.0,102.0,101.0,13.4,1505.2,323.8,-0.8,1.8,2471.017,13.28,0.051,301.5
2022-10-25T01:07:03,42.805,6.029,-0.028,-0.004,-0.051,100.0,102.0,100.0,13.3,1505.2,328.9,-0.8,1.9,2471.044,13.28,0.028,261.9
2022-10-25T01:10:03,42.805,6.029,-0.021,0.0,-0.074,102.0,99.0,100.0,13.4,1505.2,334.0,-0.8,1.8,2470.996,13.28,0.021,270.0
2022-10-25T01:13:03,42.805,6.029,-0.039,0.015,-0.016,102.0,100.0,99.0,13.4,1505.2,320.3,-0.8,1.8,2471.008,13.29,0.041,291.0
2022-10-25T01:16:03,42.805,6.029,-0.03,0.021,-0.034,101.0,99.0,100.0,13.4,1505.2,331.4,-0.8,1.8,2471.004,13.29,0.036,305.0
2022-10-25T01:19:03,42.805,6.029,-0.022,0.016,0.02,100.0,100.0,99.0,13.4,1505.2,320.0,-0.8,1.8,2471.014,13.29,0.027,306.0
2022-10-25T01:22:03,42.805,6.029,-0.024,-0.012,-0.034,100.0,101.0,101.0,13.4,1505.2,320.5,-0.8,1.8,2470.972,13.29,0.026,243.4
2022-10-25T01:25:03,42.805,6.029,-0.058,0.001,-0.061,100.0,101.0,101.0,13.4,1505.2,322.3,-0.8,1.8,2470.964,13.29,0.058,271.0
2022-10-25T01:28:03,42.805,6.029,-0.01,0.0,-0.016,100.0,100.0,100.0,13.3,1505.2,317.5,-0.8,1.8,2471.011,13.29,0.01,270.0
2022-10-25T01:31:03,42.805,6.029,-0.013,0.003,-0.028,100.0,102.0,100.0,13.4,1505.2,329.8,-0.8,1.8,2471.042,13.29,0.013,283.0
2022-10-25T01:34:03,42.805,6.029,-0.02,0.004,-0.058,101.0,101.0,100.0,13.3,1505.2,328.9,-0.8,1.8,2470.986,13.29,0.02,281.3
2022-10-25T01:37:03,42.805,6.029,-0.031,-0.005,-0.053,101.0,101.0,99.0,13.4,1505.2,333.4,-0.8,1.8,2470.978,13.29,0.031,260.8
2022-10-25T01:40:03,42.805,6.029,-0.049,0.011,-0.03,101.0,101.0,100.0,13.4,1505.2,320.1,-0.7,1.8,2470.974,13.29,0.05,282.7
2022-10-25T01:43:03,42.805,6.029,-0.034,-0.002,-0.041,100.0,101.0,100.0,13.4,1505.2,319.1,-0.8,1.8,2470.981,13.29,0.034,266.6
2022-10-25T01:46:03,42.805,6.029,-0.053,0.01,-0.054,101.0,101.0,99.0,13.4,1505.2,315.8,-0.8,1.8,2470.998,13.29,0.053,280.7
2022-10-25T01:49:03,42.805,6.029,-0.035,-0.019,-0.066,101.0,101.0,100.0,13.4,1505.2,333.4,-0.8,1.8,2470.992,13.29,0.039,241.5
2022-10-25T01:52:03,42.805,6.029,-0.021,-0.005,-0.038,100.0,102.0,101.0,13.3,1505.2,326.4,-0.8,1.8,2471.004,13.29,0.021,256.6
2022-10-25T01:55:03,42.805,6.029,-0.028,0.002,-0.027,100.0,101.0,100.0,13.3,1505.2,318.4,-0.7,1.8,2470.997,13.29,0.028,274.1
2022-10-25T01:58:03,42.805,6.029,-0.037,-0.005,-0.038,101.0,102.0,99.0,13.3,1505.2,321.7,-0.8,1.8,2470.991,13.29,0.037,262.3
2022-10-25T02:04:03,42.805,6.029,-0.038,-0.011,-0.01,101.0,101.0,100.0,13.4,1505.2,319.2,-0.8,1.8,2471.043,13.28,0.039,253.9
2022-10-25T02:07:03,42.805,6.029,-0.009,0.01,-0.045,101.0,101.0,100.0,13.4,1505.2,334.4,-0.7,1.8,2471.029,13.28,0.013,318.0
2022-10-25T02:10:03,42.805,6.029,-0.023,0.006,-0.011,101.0,101.0,100.0,13.3,1505.2,321.8,-0.8,1.8,2471.016,13.28,0.023,284.6
2022-10-25T02:13:03,42.805,6.029,-0.027,-0.017,-0.032,101.0,100.0,100.0,13.3,1505.2,321.2,-0.8,1.8,2470.993,13.28,0.031,237.8
2022-10-25T02:16:03,42.805,6.029,-0.029,-0.027,-0.037,101.0,101.0,99.0,13.4,1505.2,324.7,-0.8,1.8,2470.98,13.28,0.039,227.0
2022-10-25T02:19:03,42.805,6.029,-0.04,0.0,-0.018,101.0,100.0,100.0,13.4,1505.2,322.0,-0.8,1.8,2471.024,13.29,0.04,270.0
2022-10-25T02:22:03,42.805,6.029,-0.047,0.008,-0.019,102.0,101.0,100.0,13.3,1505.2,329.5,-0.8,1.8,2471.012,13.29,0.047,279.7
2022-10-25T02:25:03,42.805,6.029,-0.02,-0.004,-0.045,101.0,101.0,100.0,13.4,1505.2,318.9,-0.7,1.8,2470.982,13.29,0.02,258.7
2022-10-25T02:28:03,42.805,6.029,-0.024,-0.003,-0.043,101.0,101.0,100.0,13.4,1505.2,331.5,-0.7,1.8,2471.033,13.29,0.024,262.9
2022-10-25T02:31:03,42.805,6.029,-0.017,0.0,-0.039,101.0,100.0,101.0,13.4,1505.2,328.9,-0.8,1.8,2470.967,13.29,0.017,270.0
2022-10-25T02:34:03,42.805,6.029,-0.018,-0.01,-0.027,101.0,100.0,100.0,13.4,1505.2,317.6,-0.8,1.8,2471.004,13.29,0.02,240.9
2022-10-25T02:37:03,42.805,6.029,-0.023,0.008,-0.043,101.0,100.0,100.0,13.4,1505.2,333.4,-0.7,1.8,2471.007,13.29,0.024,289.2
2022-10-25T02:40:03,42.805,6.029,-0.012,-0.001,-0.041,101.0,100.0,100.0,13.4,1505.2,323.5,-0.8,1.8,2471.02,13.29,0.012,265.2
2022-10-25T02:43:03,42.805,6.029,-0.026,0.01,-0.031,101.0,100.0,100.0,13.3,1505.2,333.4,-0.8,1.8,2471.008,13.29,0.027,291.0
2022-10-25T02:46:03,42.805,6.029,-0.05,0.008,-0.03,101.0,100.0,100.0,13.4,1505.2,321.5,-0.8,1.8,2470.989,13.29,0.05,279.1
2022-10-25T02:49:03,42.805,6.029,-0.023,0.015,-0.031,100.0,101.0,100.0,13.4,1505.2,331.7,-0.8,1.8,2471.033,13.29,0.027,303.1
2022-10-25T02:52:03,42.805,6.029,-0.034,-0.002,-0.06,101.0,100.0,100.0,13.3,1505.2,332.1,-0.8,1.8,2471.005,13.29,0.034,266.6
2022-10-25T02:55:03,42.805,6.029,-0.025,0.011,-0.024,101.0,100.0,100.0,13.4,1505.2,324.6,-0.8,1.8,2471.024,13.29,0.027,293.7
2022-10-25T02:58:03,42.805,6.029,-0.053,0.006,-0.028,100.0,101.0,100.0,13.4,1505.2,326.1,-0.8,1.8,2471.006,13.29,0.053,276.5
2022-10-25T03:04:03,42.805,6.029,-0.036,0.017,-0.022,101.0,100.0,99.0,13.4,1505.2,325.7,-0.8,1.8,2471.072,13.28,0.039,295.3
2022-10-25T03:07:03,42.805,6.029,-0.031,-0.015,-0.044,101.0,100.0,100.0,13.3,1505.2,324.5,-0.8,1.8,2471.091,13.28,0.034,244.2
2022-10-25T03:10:03,42.805,6.029,-0.034,-0.02,-0.034,101.0,101.0,99.0,13.4,1505.2,318.6,-0.8,1.8,2471.064,13.28,0.039,239.5
2022-10-25T03:13:03,42.805,6.029,-0.027,0.004,-0.036,102.0,101.0,100.0,13.4,1505.2,324.5,-0.7,1.8,2471.059,13.28,0.027,278.4
2022-10-25T03:16:03,42.805,6.029,-0.024,-0.02,-0.049,101.0,102.0,99.0,13.4,1505.2,318.0,-0.8,1.8,2471.037,13.29,0.031,230.2
2022-10-25T03:19:03,42.805,6.029,-0.025,0.004,-0.054,100.0,101.0,100.0,13.4,1505.2,328.7,-0.8,1.8,2471.055,13.29,0.025,279.1
2022-10-25T03:22:03,42.805,6.029,-0.027,-0.002,-0.048,100.0,101.0,100.0,13.3,1505.2,327.3,-0.7,1.8,2471.073,13.29,0.027,265.8
2022-10-25T03:25:03,42.805,6.029,-0.017,0.013,-0.013,101.0,100.0,99.0,13.4,1505.2,331.4,-0.7,1.8,2471.063,13.29,0.021,307.4
2022-10-25T03:28:03,42.805,6.029,-0.04,-0.01,-0.04,100.0,101.0,100.0,13.4,1505.2,318.8,-0.8,1.8,2471.022,13.29,0.041,256.0
2022-10-25T03:31:03,42.805,6.029,-0.037,0.003,-0.032,100.0,101.0,101.0,13.3,1505.2,325.1,-0.8,1.8,2471.071,13.29,0.037,274.6
2022-10-25T03:34:03,42.805,6.029,-0.022,-0.002,-0.018,101.0,101.0,100.0,13.4,1505.2,325.1,-0.8,1.8,2471.05,13.29,0.022,264.8
2022-10-25T03:37:03,42.805,6.029,-0.024,-0.011,-0.05,101.0,100.0,100.0,13.4,1505.2,327.3,-0.8,1.8,2471.069,13.29,0.026,245.4
2022-10-25T03:40:03,42.805,6.029,-0.017,-0.018,-0.041,101.0,101.0,100.0,13.4,1505.2,327.3,-0.7,1.8,2471.062,13.29,0.024,223.4
2022-10-25T03:43:03,42.805,6.029,-0.028,0.025,0.0,100.0,101.0,100.0,13.4,1505.2,332.1,-0.8,1.8,2471.04,13.29,0.037,311.8
2022-10-25T03:46:03,42.805,6.029,-0.02,-0.015,-0.039,102.0,101.0,99.0,13.4,1505.2,322.7,-0.8,1.8,2471.059,13.29,0.025,233.1
2022-10-25T03:49:03,42.805,6.029,-0.026,-0.005,-0.023,100.0,101.0,101.0,13.3,1505.2,319.1,-0.8,1.8,2471.098,13.29,0.026,259.1
2022-10-25T03:52:03,42.805,6.029,-0.015,0.003,-0.008,101.0,101.0,100.0,13.4,1505.2,317.6,-0.8,1.8,2471.071,13.29,0.015,281.3
2022-10-25T03:55:03,42.805,6.029,-0.026,-0.023,-0.057,100.0,100.0,101.0,13.3,1505.2,331.6,-0.7,1.8,2471.089,13.29,0.034,228.5
2022-10-25T03:58:03,42.805,6.029,-0.063,0.004,-0.047,101.0,99.0,99.0,13.4,1505.2,325.7,-0.8,1.8,2471.038,13.29,0.063,273.6
2022-10-25T04:04:03,42.805,6.029,-0.019,-0.011,-0.038,100.0,100.0,100.0,13.4,1505.2,318.0,-0.8,1.8,2471.172,13.28,0.021,239.9
2022-10-25T04:07:03,42.805,6.029,-0.014,0.004,-0.047,101.0,101.0,99.0,13.4,1505.2,336.7,-0.7,1.8,2471.09,13.28,0.014,285.9
2022-10-25T04:10:03,42.805,6.029,-0.011,-0.007,-0.037,102.0,100.0,99.0,13.4,1505.2,320.9,-0.8,1.8,2471.15,13.28,0.013,237.5
2022-10-25T04:13:03,42.805,6.029,-0.044,0.007,-0.056,101.0,101.0,100.0,13.4,1505.2,324.6,-0.7,1.8,2471.114,13.29,0.044,279.0
2022-10-25T04:16:03,42.805,6.029,-0.006,0.003,-0.032,103.0,101.0,100.0,13.3,1505.2,331.7,-0.7,1.8,2471.117,13.29,0.006,296.6
2022-10-25T04:19:03,42.805,6.029,-0.025,-0.024,-0.054,102.0,101.0,99.0,13.4,1505.2,329.9,-0.8,1.8,2471.109,13.29,0.034,226.2
2022-10-25T04:22:03,42.805,6.029,-0.024,-0.02,-0.063,101.0,101.0,100.0,13.4,1505.2,325.9,-0.8,1.8,2471.082,13.29,0.031,230.2
2022-10-25T04:25:03,42.805,6.029,-0.044,0.016,-0.058,101.0,100.0,100.0,13.3,1505.2,331.0,-0.8,1.8,2471.115,13.29,0.046,290.0
2022-10-25T04:28:03,42.805,6.029,-0.04,-0.005,-0.051,101.0,100.0,100.0,13.4,1505.2,324.6,-0.8,1.8,2471.113,13.29,0.04,262.9
2022-10-25T04:31:03,42.805,6.029,-0.035,0.002,-0.049,102.0,101.0,99.0,13.4,1505.2,319.6,-0.8,1.8,2471.112,13.29,0.035,273.3
2022-10-25T04:34:03,42.805,6.029,-0.045,0.012,-0.021,102.0,102.0,99.0,13.3,1505.2,324.5,-0.8,1.8,2471.103,13.29,0.046,284.9
2022-10-25T04:37:03,42.805,6.029,-0.018,0.004,-0.055,101.0,100.0,100.0,13.3,1505.2,331.0,-0.8,1.8,2471.105,13.29,0.018,282.5
2022-10-25T04:40:03,42.805,6.029,-0.032,0.005,-0.062,101.0,102.0,100.0,13.4,1505.2,333.7,-0.8,1.8,2471.153,13.29,0.032,278.9
2022-10-25T04:43:03,42.805,6.029,-0.045,0.018,-0.041,103.0,102.0,100.0,13.4,1505.2,320.1,-0.7,1.8,2471.11,13.29,0.048,291.8
2022-10-25T04:46:03,42.805,6.029,-0.013,-0.003,-0.009,101.0,102.0,100.0,13.3,1505.2,320.5,-0.8,1.8,2471.147,13.29,0.013,257.0
2022-10-25T04:49:03,42.805,6.029,-0.012,-0.004,-0.024,101.0,102.0,100.0,13.4,1505.2,319.5,-0.8,1.8,2471.102,13.29,0.012,251.6
2022-10-25T04:52:03,42.805,6.029,-0.025,-0.011,-0.034,101.0,101.0,101.0,13.4,1505.2,327.6,-0.8,1.8,2471.115,13.29,0.027,246.3
2022-10-25T04:55:03,42.805,6.029,-0.028,0.009,-0.006,100.0,100.0,100.0,13.4,1505.2,328.7,-0.8,1.8,2471.126,13.29,0.029,287.8
2022-10-25T04:58:03,42.805,6.029,-0.037,-0.006,-0.029,99.0,101.0,101.0,13.3,1505.2,319.2,-0.8,1.8,2471.161,13.29,0.037,260.8
2022-10-25T05:04:03,42.805,6.029,-0.036,0.019,-0.031,100.0,100.0,101.0,13.3,1505.2,333.1,-0.8,1.8,2471.179,13.28,0.04,297.8
2022-10-25T05:07:03,42.805,6.029,-0.015,-0.013,-0.065,100.0,101.0,101.0,13.3,1505.2,325.1,-0.8,1.8,2471.199,13.28,0.019,229.1
2022-10-25T05:10:03,42.805,6.029,-0.037,0.011,-0.048,101.0,101.0,100.0,13.4,1505.2,318.0,-0.8,1.8,2471.12,13.28,0.038,286.6
2022-10-25T05:13:03,42.805,6.029,-0.026,-0.009,-0.03,101.0,101.0,100.0,13.4,1505.2,323.5,-0.8,1.8,2471.172,13.29,0.027,250.9
2022-10-25T05:16:03,42.805,6.029,-0.04,0.001,-0.049,101.0,101.0,100.0,13.3,1505.2,321.8,-0.7,1.8,2471.145,13.29,0.04,271.4
2022-10-25T05:19:03,42.805,6.029,-0.009,0.0,-0.013,101.0,102.0,100.0,13.3,1505.2,322.1,-0.7,1.8,2471.188,13.29,0.009,270.0
2022-10-25T05:22:03,42.805,6.029,-0.032,-0.008,-0.026,100.0,102.0,100.0,13.4,1505.2,326.7,-0.8,1.8,2471.218,13.29,0.032,256.0
2022-10-25T05:25:03,42.805,6.029,-0.022,-0.014,-0.016,101.0,101.0,100.0,13.4,1505.2,318.7,-0.7,1.8,2471.186,13.29,0.026,237.5
2022-10-25T05:28:03,42.805,6.029,-0.053,-0.002,-0.054,101.0,101.0,100.0,13.4,1505.2,334.9,-0.8,1.8,2471.183,13.29,0.053,267.8
2022-10-25T05:31:03,42.805,6.029,-0.027,0.001,-0.023,102.0,102.0,100.0,13.4,1505.2,329.3,-0.8,1.8,2471.162,13.29,0.027,272.1
2022-10-25T05:34:03,42.805,6.029,-0.026,0.001,-0.045,102.0,101.0,99.0,13.4,1505.2,325.3,-0.7,1.8,2471.137,13.29,0.026,272.2
2022-10-25T05:37:03,42.805,6.029,-0.023,0.028,0.011,101.0,101.0,100.0,13.4,1505.2,330.7,-0.7,1.8,2471.191,13.29,0.036,320.6
2022-10-25T05:40:03,42.805,6.029,-0.016,-0.019,-0.069,101.0,102.0,100.0,13.4,1505.2,323.1,-0.8,1.8,2471.163,13.29,0.024,220.1
2022-10-25T05:43:03,42.805,6.029,-0.035,-0.002,-0.021,101.0,101.0,101.0,13.4,1505.2,331.0,-0.7,1.8,2471.185,13.29,0.035,266.7
2022-10-25T05:46:03,42.805,6.029,-0.023,0.015,-0.025,101.0,101.0,100.0,13.3,1505.2,319.3,-0.8,1.8,2471.142,13.29,0.027,303.1
2022-10-25T05:49:03,42.805,6.029,-0.03,0.007,-0.015,101.0,101.0,101.0,13.3,1505.2,333.4,-0.8,1.8,2471.222,13.29,0.03,283.1
2022-10-25T05:52:03,42.805,6.029,-0.025,-0.003,-0.06,101.0,101.0,100.0,13.4,1505.2,328.3,-0.8,1.8,2471.163,13.29,0.025,263.2
2022-10-25T05:55:03,42.805,6.029,-0.008,0.007,-0.008,102.0,100.0,100.0,13.4,1505.2,326.5,-0.8,1.8,2471.18,13.29,0.01,311.2
2022-10-25T05:58:03,42.805,6.029,-0.041,0.008,-0.03,100.0,101.0,100.0,13.4,1505.2,327.0,-0.7,1.8,2471.176,13.29,0.041,281.0
2022-10-25T06:04:02,42.805,6.029,-0.03,0.005,-0.03,101.0,101.0,100.0,13.4,1505.2,330.1,-0.7,1.8,2471.219,13.28,0.03,279.5
2022-10-25T06:07:03,42.805,6.029,-0.036,0.005,-0.044,101.0,101.0,101.0,13.4,1505.2,335.6,-0.8,1.8,2471.23,13.28,0.036,277.9
2022-10-25T06:10:03,42.805,6.029,-0.029,0.0,-0.017,102.0,99.0,100.0,13.4,1505.2,322.2,-0.8,1.8,2471.197,13.28,0.028,270.0
2022-10-25T06:13:03,42.805,6.029,-0.032,0.0,-0.026,101.0,100.0,100.0,13.4,1505.2,330.3,-0.8,1.8,2471.246,13.29,0.032,270.0
2022-10-25T06:16:03,42.805,6.029,-0.042,0.009,-0.011,101.0,102.0,100.0,13.4,1505.2,319.6,-0.8,1.8,2471.206,13.29,0.042,282.1
2022-10-25T06:19:03,42.805,6.029,-0.027,-0.01,-0.062,101.0,103.0,99.0,13.3,1505.2,327.0,-0.7,1.8,2471.188,13.29,0.028,249.7
2022-10-25T06:22:03,42.805,6.029,-0.053,0.001,-0.03,101.0,101.0,101.0,13.3,1505.2,329.6,-0.8,1.8,2471.227,13.29,0.053,271.1
2022-10-25T06:25:03,42.805,6.029,-0.041,-0.005,-0.031,101.0,102.0,101.0,13.4,1505.2,319.2,-0.7,1.8,2471.225,13.29,0.041,263.0
2022-10-25T06:28:03,42.805,6.029,-0.02,-0.009,-0.025,102.0,101.0,100.0,13.4,1505.2,324.7,-0.8,1.8,2471.206,13.29,0.021,245.8
2022-10-25T06:31:03,42.805,6.029,-0.031,-0.002,-0.034,101.0,101.0,100.0,13.3,1505.2,328.0,-0.8,1.8,2471.198,13.29,0.031,266.3
2022-10-25T06:34:03,42.805,6.029,-0.02,-0.001,-0.056,101.0,101.0,100.0,13.4,1505.2,320.1,-0.8,1.8,2471.171,13.29,0.02,267.1
2022-10-25T06:37:03,42.805,6.029,-0.023,-0.01,-0.036,102.0,101.0,100.0,13.4,1505.2,326.9,-0.8,1.8,2471.183,13.29,0.025,246.5
2022-10-25T06:40:03,42.805,6.029,-0.039,-0.021,-0.078,100.0,103.0,101.0,13.4,1505.2,327.0,-0.7,1.8,2471.224,13.29,0.044,241.7
2022-10-25T06:43:03,42.805,6.029,-0.033,-0.009,-0.048,102.0,101.0,99.0,13.4,1505.2,325.7,-0.8,1.8,2471.18,13.29,0.034,254.7
2022-10-25T06:46:03,42.805,6.029,-0.015,-0.006,-0.013,100.0,101.0,102.0,13.4,1505.2,326.5,-0.8,1.9,2471.195,13.29,0.016,248.2
2022-10-25T06:49:03,42.805,6.029,-0.018,-0.003,-0.037,101.0,102.0,100.0,13.4,1505.2,322.7,-0.8,1.8,2471.219,13.29,0.018,260.5
2022-10-25T06:52:03,42.805,6.029,-0.02,-0.013,-0.032,101.0,102.0,100.0,13.4,1505.2,320.0,-0.7,1.8,2471.24,13.29,0.023,237.0
2022-10-25T06:55:03,42.805,6.029,-0.025,-0.004,-0.052,101.0,100.0,100.0,13.4,1505.2,327.8,-0.8,1.8,2471.205,13.29,0.025,260.9
2022-10-25T06:58:03,42.805,6.029,-0.031,0.014,-0.021,102.0,101.0,101.0,13.3,1505.2,322.0,-0.8,1.8,2471.196,13.29,0.034,294.3
2022-10-25T07:04:03,42.805,6.029,-0.005,-0.016,-0.03,101.0,101.0,100.0,13.4,1505.2,332.1,-0.8,1.8,2471.264,13.28,0.016,197.4
2022-10-25T07:07:03,42.805,6.029,-0.048,0.022,0.002,102.0,100.0,100.0,13.4,1505.2,328.5,-0.8,1.9,2471.229,13.28,0.052,294.6
2022-10-25T07:10:03,42.805,6.029,-0.023,-0.016,-0.026,101.0,100.0,100.0,13.4,1505.2,328.2,-0.7,1.8,2471.27,13.28,0.028,235.2
2022-10-25T07:13:03,42.805,6.029,-0.015,0.0,-0.036,101.0,102.0,100.0,13.4,1505.2,324.4,-0.8,1.9,2471.237,13.29,0.015,270.0
2022-10-25T07:16:03,42.805,6.029,-0.017,-0.007,-0.028,102.0,101.0,99.0,13.3,1505.2,316.7,-0.8,1.8,2471.234,13.29,0.018,247.6
2022-10-25T07:19:03,42.805,6.029,0.01,-0.009,-0.02,100.0,101.0,100.0,13.4,1505.2,324.1,-0.8,1.8,2471.232,13.29,0.013,132.0
2022-10-25T07:22:03,42.805,6.029,-0.003,-0.01,-0.031,101.0,100.0,100.0,13.4,1505.2,329.2,-0.7,1.8,2471.217,13.29,0.01,196.7
2022-10-25T07:25:03,42.805,6.029,-0.02,0.015,-0.015,102.0,100.0,100.0,13.4,1505.2,324.4,-0.7,1.8,2471.19,13.29,0.025,306.9
2022-10-25T07:28:03,42.805,6.029,-0.009,-0.011,-0.05,101.0,100.0,100.0,13.3,1505.2,320.8,-0.7,1.8,2471.227,13.29,0.014,219.3
2022-10-25T07:31:03,42.805,6.029,-0.037,-0.021,-0.051,100.0,100.0,101.0,13.4,1505.2,327.3,-0.8,1.8,2471.227,13.29,0.042,240.4
2022-10-25T07:34:03,42.805,6.029,0.0,-0.001,-0.02,101.0,101.0,103.0,13.4,1505.2,326.7,-0.7,1.8,2471.242,13.29,0.001,180.0
2022-10-25T07:37:03,42.805,6.029,-0.018,0.001,-0.012,101.0,101.0,100.0,13.4,1505.2,323.5,-0.7,1.8,2471.218,13.29,0.018,273.2
2022-10-25T07:40:03,42.805,6.029,-0.04,0.008,-0.011,101.0,101.0,101.0,13.4,1505.2,320.8,-0.8,1.8,2471.222,13.29,0.04,281.3
2022-10-25T07:43:03,42.805,6.029,-0.029,-0.021,-0.03,101.0,101.0,100.0,13.4,1505.2,321.1,-0.8,1.8,2471.219,13.29,0.035,234.1
2022-10-25T07:46:03,42.805,6.029,-0.026,-0.015,-0.043,102.0,102.0,100.0,13.4,1505.2,333.7,-0.7,1.8,2471.169,13.29,0.03,240.0
2022-10-25T07:49:03,42.805,6.029,-0.011,-0.017,0.0,101.0,100.0,101.0,13.4,1505.2,325.5,-0.7,1.8,2471.169,13.29,0.02,212.9
2022-10-25T07:52:03,42.805,6.029,-0.029,-0.004,0.007,102.0,101.0,100.0,13.4,1505.2,322.8,-0.8,1.8,2471.15,13.29,0.029,262.2
2022-10-25T07:55:03,42.805,6.029,-0.031,-0.031,-0.034,102.0,101.0,100.0,13.4,1505.2,322.6,-0.7,1.8,2471.193,13.29,0.043,225.0
2022-10-25T07:58:03,42.805,6.029,-0.037,-0.009,-0.043,101.0,101.0,100.0,13.4,1505.2,328.2,-0.8,1.8,2471.212,13.29,0.038,256.3
2022-10-25T08:04:03,42.805,6.029,-0.005,-0.008,-0.02,101.0,101.0,100.0,13.4,1505.2,320.1,-0.8,1.8,2471.188,13.28,0.009,212.0
2022-10-25T08:07:03,42.805,6.029,-0.01,-0.013,-0.029,101.0,101.0,100.0,13.3,1505.2,322.5,-0.8,1.8,2471.215,13.28,0.016,217.6
2022-10-25T08:10:03,42.805,6.029,-0.014,-0.036,-0.033,101.0,101.0,101.0,13.4,1505.2,318.1,-0.8,1.8,2471.227,13.28,0.038,201.2
2022-10-25T08:13:03,42.805,6.029,0.006,-0.001,-0.044,101.0,100.0,100.0,13.3,1505.2,331.5,-0.8,1.8,2471.216,13.29,0.006,99.5
2022-10-25T08:16:03,42.805,6.029,-0.029,-0.011,-0.057,101.0,102.0,99.0,13.4,1505.2,328.2,-0.8,1.8,2471.222,13.29,0.031,249.2
2022-10-25T08:19:03,42.805,6.029,-0.022,0.006,-0.013,100.0,101.0,101.0,13.4,1505.2,333.4,-0.8,1.8,2471.188,13.29,0.022,285.3
2022-10-25T08:22:03,42.805,6.029,0.004,-0.025,-0.015,100.0,101.0,100.0,13.3,1505.2,321.7,-0.7,1.8,2471.178,13.29,0.025,170.9
2022-10-25T08:25:03,42.805,6.029,-0.051,0.0,-0.036,101.0,101.0,100.0,13.4,1505.2,325.7,-0.7,1.8,2471.218,13.29,0.051,270.0
2022-10-25T08:28:03,42.805,6.029,-0.003,0.002,-0.038,101.0,100.0,100.0,13.4,1505.2,324.2,-0.8,1.8,2471.171,13.29,0.003,303.7
2022-10-25T08:31:03,42.805,6.029,-0.015,-0.008,-0.01,99.0,101.0,101.0,13.3,1505.2,327.7,-0.8,1.8,2471.179,13.29,0.017,241.9
2022-10-25T08:34:03,42.805,6.029,-0.017,-0.021,-0.033,102.0,100.0,100.0,13.4,1505.2,319.7,-0.7,1.8,2471.187,13.29,0.027,219.0
2022-10-25T08:37:03,42.805,6.029,0.01,-0.005,-0.027,102.0,101.0,100.0,13.4,1505.2,331.0,-0.8,1.8,2471.129,13.29,0.011,116.6
2022-10-25T08:40:03,42.805,6.029,-0.022,0.02,-0.005,100.0,101.0,100.0,13.3,1505.2,320.9,-0.7,1.8,2471.15,13.29,0.029,312.3
2022-10-25T08:43:03,42.805,6.029,-0.029,-0.007,-0.058,101.0,101.0,100.0,13.4,1505.2,318.4,-0.8,1.8,2471.188,13.29,0.029,256.4
2022-10-25T08:46:03,42.805,6.029,-0.036,0.0,-0.04,100.0,102.0,100.0,13.4,1505.2,321.7,-0.8,1.8,2471.182,13.29,0.036,270.0
2022-10-25T08:49:03,42.805,6.029,-0.026,0.014,-0.022,101.0,101.0,100.0,13.4,1505.2,334.0,-0.8,1.8,2471.19,13.29,0.029,298.3
2022-10-25T08:52:03,42.805,6.029,-0.029,-0.016,-0.027,101.0,101.0,100.0,13.4,1505.2,319.6,-0.7,1.8,2471.158,13.29,0.033,241.1
2022-10-25T08:55:03,42.805,6.029,-0.03,-0.015,-0.015,101.0,101.0,100.0,13.4,1505.2,330.4,-0.8,1.8,2471.131,13.29,0.033,243.4
2022-10-25T08:58:03,42.805,6.029,-0.034,-0.016,-0.018,101.0,101.0,100.0,13.3,1505.2,326.4,-0.7,1.8,2471.131,13.29,0.037,244.8
2022-10-25T09:04:03,42.805,6.029,-0.029,0.004,-0.037,101.0,101.0,100.0,13.4,1505.2,322.3,-0.8,1.8,2471.224,13.28,0.029,277.8
2022-10-25T09:07:03,42.805,6.029,-0.01,-0.02,-0.043,102.0,100.0,100.0,13.4,1505.2,324.8,-0.8,1.8,2471.23,13.28,0.022,206.6
2022-10-25T09:10:03,42.805,6.029,-0.028,-0.007,-0.033,101.0,101.0,100.0,13.4,1505.2,328.9,-0.8,1.8,2471.152,13.28,0.028,256.0
2022-10-25T09:13:03,42.805,6.029,-0.026,-0.019,-0.042,102.0,101.0,100.0,13.3,1505.2,330.1,-0.8,1.8,2471.18,13.28,0.032,233.8
2022-10-25T09:16:03,42.805,6.029,-0.011,-0.023,-0.037,101.0,101.0,100.0,13.3,1505.2,325.5,-0.8,1.8,2471.198,13.29,0.025,205.6
2022-10-25T09:19:03,42.805,6.029,-0.03,-0.018,-0.022,102.0,101.0,100.0,13.4,1505.2,319.6,-0.8,1.9,2471.181,13.29,0.034,239.0
2022-10-25T09:22:03,42.805,6.029,-0.011,-0.018,-0.049,101.0,101.0,100.0,13.3,1505.2,322.6,-0.7,1.8,2471.19,13.29,0.021,211.4
2022-10-25T09:25:03,42.805,6.029,-0.015,-0.029,-0.058,101.0,102.0,99.0,13.4,1505.2,325.5,-0.8,1.8,2471.17,13.29,0.032,207.4
2022-10-25T09:28:03,42.805,6.029,-0.026,-0.01,-0.033,100.0,102.0,100.0,13.3,1505.2,329.4,-0.8,1.8,2471.159,13.29,0.027,249.0
2022-10-25T09:31:03,42.805,6.029,-0.02,-0.01,-0.057,101.0,101.0,100.0,13.4,1505.2,327.7,-0.7,1.8,2471.149,13.29,0.022,243.4
2022-10-25T09:34:03,42.805,6.029,-0.018,-0.042,-0.036,101.0,101.0,101.0,13.3,1505.2,321.8,-0.8,1.8,2471.132,13.29,0.045,203.2
2022-10-25T09:37:03,42.805,6.029,-0.051,-0.007,-0.025,102.0,100.0,100.0,13.4,1505.2,329.0,-0.8,1.8,2471.127,13.29,0.051,262.2
2022-10-25T09:40:03,42.805,6.029,-0.034,0.005,-0.007,102.0,100.0,100.0,13.4,1505.2,320.1,-0.7,1.8,2471.115,13.29,0.034,278.4
2022-10-25T09:43:03,42.805,6.029,-0.009,-0.015,-0.049,102.0,101.0,101.0,13.4,1505.2,317.5,-0.8,1.8,2471.111,13.29,0.017,211.0
2022-10-25T09:46:03,42.805,6.029,-0.012,-0.01,-0.027,101.0,101.0,100.0,13.3,1505.2,327.6,-0.8,1.8,2471.14,13.29,0.015,230.2
2022-10-25T09:49:03,42.805,6.029,-0.019,-0.019,-0.057,101.0,102.0,101.0,13.4,1505.2,327.9,-0.7,1.8,2471.132,13.29,0.026,225.0
2022-10-25T09:52:03,42.805,6.029,-0.008,-0.02,-0.027,102.0,101.0,100.0,13.4,1505.2,324.1,-0.8,1.8,2471.087,13.29,0.021,201.8